Temp
15 14 13 13 13 13 14 14 14 14 14 15 15 14 15 15 15 17 18 19 20 20 20 21 21 21 22 22 23 24 24 23 23 23 23 23 22 22 22 22 22 22 22 22 22 21 21 21 21 20 20 19 19 19 19 19 19 19 19 19 19 19 19 20 20 20 20 20 19 19 19 19 19 19 20 20 20 20 20 20 20 20 20 20 20 19
14 13 13 13 13 13 14 14 14 14 14 14 14 14 14 14 15 17 18 19 20 19 19 20 20 20 21 22 23 24 24 24 23 23 23 23 22 22 22 22 22 22 22 22 21 21 20 21 21 20 20 19 19 19 19 19 19 19 19 19 19 19 19 20 20 20 20 20 20 19 19 19 19 19 20 20 20 20 20 20 20 20 20 19 19 19
13 12 13 13 13 13 13 14 14 14 14 14 14 14 14 14 15 16 17 19 19 19 19 20 19 19 20 22 23 23 24 24 24 23 23 23 22 22 22 22 22 22 21 21 21 20 20 20 20 20 19 19 19 19 19 19 19 19 19 19 19 19 20 20 20 21 21 21 20 19 19 19 19 19 20 20 20 20 20 20 20 20 20 19 19 19
12 12 13 14 13 13 13 14 13 13 13 13 14 13 13 14 15 15 17 18 19 19 19 19 19 19 20 21 22 23 23 24 24 24 23 23 22 22 22 22 22 22 21 21 21 20 20 20 20 20 19 19 19 19 19 19 19 19 19 19 19 19 20 20 21 21 21 20 20 20 20 20 20 20 20 20 20 20 20 20 20 19 19 19 19 19
12 13 14 14 14 13 13 13 13 13 13 13 14 13 13 14 15 15 16 17 18 19 19 19 18 18 20 21 22 23 22 23 24 24 23 22 23 22 22 22 22 22 22 21 21 20 20 19 19 19 19 19 19 19 19 19 19 19 19 19 19 20 20 20 20 21 21 20 19 19 19 19 19 19 19 19 19 19 19 19 19 19 19 19 19 19
12 13 14 13 14 13 13 13 13 13 13 13 13 14 14 15 15 16 16 17 17 17 18 19 17 18 20 20 21 23 23 22 23 23 23 22 22 22 22 22 22 22 22 21 21 21 20 19 19 19 19 19 19 19 19 19 19 19 19 19 20 20 20 20 20 20 20 20 19 19 19 18 18 18 18 18 18 19 19 19 19 19 19 19 19 19
13 14 14 13 13 14 13 13 14 14 13 12 14 15 15 15 15 16 16 16 16 16 18 19 18 17 19 20 21 22 22 22 23 23 23 22 21 22 22 22 22 22 22 21 21 21 20 20 19 19 19 19 19 19 19 19 19 19 20 20 20 20 20 20 20 20 20 20 19 19 19 18 18 17 17 18 19 19 19 19 19 19 19 19 18 18
14 14 14 13 13 13 13 13 14 14 13 13 15 16 15 15 15 16 16 15 16 17 17 18 19 17 17 20 21 21 21 22 22 22 23 22 21 21 22 22 22 22 22 21 21 21 20 20 20 19 19 19 19 19 19 19 19 19 20 20 19 20 20 20 20 20 20 20 19 19 19 18 18 18 18 18 19 19 19 19 19 19 18 18 18 18
14 14 14 14 13 13 13 14 15 15 14 14 16 16 15 16 16 16 16 15 16 16 16 17 18 17 17 19 21 20 20 21 22 23 23 22 22 21 21 22 22 22 22 21 21 21 20 20 20 20 19 19 19 19 19 19 19 19 20 19 19 19 19 19 20 20 20 20 20 19 19 18 18 18 18 18 18 18 18 18 18 18 18 17 17 17
13 14 14 14 13 13 13 14 15 15 15 16 16 16 15 16 16 16 16 16 16 15 15 16 17 17 16 19 20 20 20 20 21 22 22 23 22 21 21 21 22 22 22 22 21 21 20 20 20 20 20 19 19 19 19 19 19 19 19 19 19 19 19 19 19 20 20 20 20 19 19 18 18 17 18 18 18 18 18 18 17 17 17 17 17 17
13 14 14 14 13 14 14 15 15 15 15 16 16 15 16 15 15 16 16 16 16 14 15 16 17 17 16 18 19 19 21 21 22 22 22 22 23 22 22 21 22 22 22 22 21 21 20 20 20 20 20 19 19 19 19 19 19 19 19 19 19 19 19 19 19 19 19 20 20 19 19 18 18 17 17 17 17 17 17 17 17 17 17 17 17 17
12 12 13 14 14 15 15 14 15 15 16 15 15 15 15 15 15 15 15 15 14 14 16 17 17 17 16 17 19 20 21 22 22 22 23 23 23 23 22 22 22 22 22 21 21 21 20 20 20 20 19 19 19 18 18 19 19 19 19 19 19 18 18 19 19 19 19 19 19 19 19 18 18 17 17 17 17 17 17 17 17 17 17 16 16 16
12 12 12 13 15 15 14 13 14 15 15 15 15 14 14 14 14 14 14 14 13 14 17 17 17 17 16 18 20 20 21 21 21 22 22 23 23 23 23 22 22 22 22 21 21 21 20 20 20 20 19 19 18 18 18 19 19 19 19 18 18 18 18 19 19 19 19 19 19 19 19 18 18 18 17 17 17 17 17 17 17 16 16 16 16 16
11 12 12 12 13 14 14 13 13 14 15 15 15 14 13 13 13 13 13 14 14 15 17 17 17 17 17 19 20 20 21 21 22 22 22 22 22 23 23 22 22 22 22 22 21 21 20 20 20 20 19 19 18 18 18 18 18 18 18 18 18 18 18 18 19 19 19 19 19 19 18 18 18 17 17 17 17 17 17 17 17 17 17 17 17 16
10 10 12 13 13 14 14 13 13 14 14 15 15 15 14 13 13 13 14 14 14 16 17 17 16 17 18 20 22 22 22 22 22 22 22 22 22 22 23 22 21 21 22 22 21 21 21 20 20 20 20 19 19 19 18 18 18 18 18 18 18 18 18 18 18 19 19 19 18 18 18 18 18 17 17 17 17 17 17 17 17 17 17 17 17 17
10 10 12 13 14 14 13 14 15 14 14 14 15 15 13 14 15 14 14 15 15 16 16 16 17 18 19 21 22 23 22 22 22 22 22 22 23 23 22 22 21 21 21 22 21 21 21 20 20 20 20 19 19 19 18 18 18 18 18 18 18 18 18 18 18 18 18 18 18 18 18 18 18 17 17 17 17 17 17 17 17 17 17 17 17 17
10 10 12 12 13 14 13 13 15 15 14 14 14 14 15 15 16 14 14 14 14 15 16 16 17 19 19 20 21 21 21 22 22 22 23 23 23 22 22 22 21 21 21 21 21 21 21 20 20 20 20 19 19 19 18 18 19 19 18 18 18 18 17 18 18 18 18 18 18 18 18 18 17 17 17 17 17 17 17 17 17 17 17 17 17 16
10 10 11 12 12 13 14 14 14 15 15 13 13 15 16 15 15 15 14 14 14 14 15 16 17 18 18 19 20 21 21 22 23 23 23 23 23 22 22 23 22 21 21 21 21 21 21 21 20 20 20 19 19 19 19 19 19 19 19 18 18 18 18 18 18 18 18 18 17 17 17 17 17 17 17 17 17 17 17 16 17 17 17 17 16 16
11 10 11 12 12 13 14 13 13 14 15 14 15 16 15 14 14 14 14 14 14 14 15 16 17 17 17 18 20 21 22 22 22 22 22 22 23 22 22 23 23 21 20 21 21 21 21 21 20 20 20 19 19 19 19 19 19 19 19 18 18 18 18 18 18 18 17 17 17 17 17 17 17 17 17 17 16 16 16 16 16 17 17 16 16 16
11 10 10 11 11 12 13 13 12 13 14 14 15 15 15 14 14 14 13 14 14 14 14 15 15 17 18 19 20 21 21 21 21 22 22 22 22 22 22 22 22 22 21 20 21 21 21 20 20 20 20 19 19 19 19 18 18 19 18 18 18 18 17 17 17 17 17 17 17 17 17 17 17 17 17 16 16 16 16 16 16 17 16 16 16 16
11 10 10 11 12 12 12 12 12 13 13 14 14 14 14 15 14 14 13 14 14 14 14 14 15 17 18 19 20 20 21 21 21 21 21 21 21 21 22 22 22 21 21 21 21 21 20 20 20 20 20 19 19 19 18 18 18 18 18 18 18 18 17 17 17 17 17 17 17 17 17 17 17 17 16 16 16 16 16 16 16 16 16 16 16 15
11 10 9 10 11 11 11 12 13 13 13 13 13 14 14 14 14 14 13 14 15 14 14 14 15 16 18 19 20 20 19 20 20 20 20 20 20 21 21 21 21 21 21 21 21 21 20 20 20 20 20 19 19 19 18 18 18 18 18 18 18 17 17 17 17 17 17 17 17 17 16 16 16 16 16 16 16 16 16 16 16 16 16 16 15 15
11 9 9 9 10 10 11 12 12 12 12 13 13 13 14 14 14 13 13 14 15 15 15 15 15 16 18 18 19 19 18 19 19 19 19 19 19 19 19 20 21 21 21 21 21 20 20 20 20 20 19 19 19 19 18 18 18 18 18 18 18 17 17 17 17 17 17 17 17 17 16 16 16 16 16 16 16 15 15 15 15 16 16 15 15 15
11 9 8 9 10 10 11 12 12 12 12 12 12 13 14 14 15 14 14 15 14 14 15 15 14 16 17 18 18 18 18 18 18 19 19 18 18 18 18 19 20 21 21 21 21 20 20 20 20 20 19 19 19 19 18 18 18 18 18 18 18 17 17 17 17 17 17 17 17 16 16 16 16 16 16 16 15 15 15 15 15 15 15 15 14 14
10 9 8 9 9 10 11 11 11 11 11 11 12 13 14 14 15 14 14 15 14 14 15 14 14 16 17 18 18 18 18 18 18 18 18 18 18 17 17 18 20 21 21 20 20 20 20 20 20 20 19 19 19 19 18 18 18 18 18 18 18 17 17 17 17 17 17 17 16 16 16 16 16 16 16 15 15 15 15 15 15 15 15 14 14 14
10 9 9 9 9 9 10 11 11 11 11 12 13 13 14 14 14 14 14 14 13 14 15 14 14 15 17 18 18 18 18 17 18 18 18 17 17 17 17 18 20 21 21 20 20 20 20 20 20 20 19 19 19 19 18 18 18 18 18 18 18 18 17 17 17 17 17 17 16 16 16 16 16 16 16 15 15 15 15 15 15 15 14 14 14 14
9 9 9 9 10 10 10 11 12 12 11 12 13 13 13 14 14 14 14 13 14 14 14 14 15 15 16 17 18 18 18 17 18 18 18 17 17 17 17 18 19 21 21 20 20 20 20 20 20 19 19 19 19 19 18 18 18 18 18 18 18 18 18 17 17 17 17 17 16 16 16 16 16 16 15 15 15 15 15 15 15 15 14 13 14 14
9 9 9 9 10 10 10 11 12 11 11 12 12 13 13 14 14 14 13 14 15 15 14 15 16 15 16 17 17 17 17 17 18 18 17 17 16 17 17 17 19 20 20 20 20 20 20 20 19 19 19 19 19 19 18 18 18 18 18 18 18 18 18 17 17 17 17 17 16 16 16 16 16 16 15 15 15 15 14 14 15 15 14 13 14 14
9 9 10 9 9 10 10 10 11 11 11 11 12 13 14 14 14 14 13 14 15 15 14 16 16 15 16 17 17 18 18 17 18 18 17 16 16 17 17 17 19 20 20 20 20 20 20 19 19 19 19 19 19 18 18 18 18 18 18 18 18 18 17 17 17 17 17 16 16 16 16 16 15 15 15 15 14 14 14 14 14 14 13 13 14 14
9 9 10 9 9 10 10 10 10 10 10 11 12 13 14 14 14 14 15 15 15 15 15 16 16 16 16 17 18 18 18 17 17 17 16 16 17 17 17 17 19 20 20 20 20 20 20 19 19 19 19 19 19 18 18 18 18 18 18 18 18 18 17 17 17 17 17 16 16 16 16 15 15 15 15 14 14 14 14 14 14 14 13 13 13 14
9 10 10 9 9 10 10 11 10 10 10 10 11 13 13 14 14 15 15 15 15 15 16 16 16 16 17 18 18 18 17 17 17 17 17 17 17 16 16 17 19 19 19 20 20 20 20 19 19 19 19 18 18 18 18 18 18 18 18 18 18 18 17 17 17 17 16 16 16 16 16 15 15 14 14 14 14 14 14 14 14 14 13 13 13 13
9 9 10 9 10 11 11 11 11 11 10 10 11 12 13 14 14 15 15 15 16 16 16 16 15 16 18 19 18 17 17 17 17 17 17 17 16 16 16 17 19 20 19 19 20 20 20 19 19 19 18 18 18 18 18 18 18 18 18 18 18 18 17 17 17 17 16 16 16 15 15 15 15 14 14 14 14 14 13 14 14 13 13 12 13 13
9 9 10 10 11 12 11 11 12 12 11 12 13 14 14 14 15 15 15 16 16 16 16 16 16 17 18 18 18 17 17 17 18 18 17 16 16 16 16 17 18 19 20 19 19 20 19 19 19 19 19 18 18 18 18 18 18 18 18 18 18 17 17 17 17 16 16 16 16 15 15 15 15 14 14 14 14 13 13 13 13 13 12 12 13 13
10 10 11 11 11 12 11 11 12 12 13 15 15 15 15 15 15 16 16 16 16 17 17 17 17 18 18 17 17 17 17 18 18 17 16 16 16 16 16 16 17 18 19 19 19 20 19 19 19 19 19 18 18 18 18 18 18 18 18 18 18 17 17 17 16 16 16 16 15 15 15 14 14 14 14 14 14 13 13 13 13 13 12 12 13 13
10 11 11 11 11 12 12 12 13 13 15 16 15 15 16 16 16 16 16 17 17 17 17 17 18 18 17 18 18 18 18 18 16 16 16 16 16 16 16 16 16 17 18 19 19 19 19 19 19 18 18 18 18 18 18 18 18 18 18 18 17 17 17 17 16 16 16 15 15 15 15 14 14 14 13 13 14 13 13 13 13 13 12 12 13 13
11 11 11 11 11 12 12 13 13 14 15 16 15 15 15 16 16 16 16 16 17 17 17 17 18 18 18 19 20 19 18 17 16 17 17 17 17 17 16 16 17 17 18 19 19 19 19 19 19 18 18 18 18 18 18 18 18 18 18 17 17 17 17 16 16 16 15 15 15 14 14 14 14 13 13 13 13 13 13 13 13 12 12 12 13 13
11 11 12 12 12 12 12 12 13 14 15 15 14 15 14 15 15 15 15 17 17 16 16 17 18 18 19 20 20 19 17 17 17 18 19 19 18 17 17 16 17 18 18 19 19 19 19 19 19 18 18 18 18 18 18 18 18 17 17 17 17 16 16 16 16 15 15 15 14 14 14 14 13 13 13 13 13 13 13 13 13 12 12 12 13 12
12 12 12 12 12 12 12 12 13 14 14 14 14 14 14 14 14 14 16 17 16 15 15 16 18 18 19 19 19 17 17 17 17 18 19 20 19 18 17 16 17 18 19 18 18 19 19 18 18 18 18 18 18 18 18 17 17 17 17 16 16 16 16 16 15 15 15 14 14 14 14 14 14 13 13 13 13 13 13 13 13 13 12 13 13 12
12 12 12 12 12 12 12 12 12 13 14 13 13 13 13 13 13 14 16 17 16 15 14 14 16 16 16 17 16 16 16 16 17 18 19 19 19 18 17 17 17 17 17 17 18 18 18 18 18 18 18 18 17 18 18 17 17 17 16 16 16 16 16 16 15 15 15 14 14 14 14 14 14 14 13 13 13 14 13 13 13 13 13 12 13 12
12 12 12 12 12 12 12 12 12 13 14 13 13 13 13 13 14 16 17 16 15 14 14 14 14 14 14 15 15 15 16 16 18 19 19 19 19 18 17 16 16 17 17 17 17 18 18 18 18 17 17 17 17 18 17 17 17 16 16 16 16 16 16 16 15 15 15 14 14 14 14 14 14 13 13 13 14 14 13 13 13 13 12 12 12 12
11 11 11 12 12 12 11 12 13 14 14 13 13 13 13 14 16 16 16 15 14 13 14 14 14 14 14 15 15 15 15 16 18 18 18 18 19 18 16 16 16 16 16 17 17 18 17 17 17 18 17 17 18 17 17 17 17 16 16 16 16 16 16 15 15 15 15 15 14 14 14 14 13 13 13 14 15 14 13 13 13 13 13 12 12 12
11 11 12 12 12 12 11 12 13 14 14 12 13 14 14 15 16 16 14 13 13 13 14 14 14 14 14 14 14 14 14 15 15 15 15 17 18 18 17 17 16 16 16 16 16 17 17 17 17 17 17 17 17 17 17 17 16 16 16 16 16 16 15 15 15 15 15 14 14 14 14 13 13 14 14 14 15 14 13 13 13 13 13 13 12 12
10 11 12 12 12 12 12 12 13 14 14 13 12 13 14 14 14 13 13 13 13 13 14 13 14 14 14 14 14 14 14 14 15 15 15 16 18 18 18 18 17 16 15 15 15 16 16 17 17 17 17 17 17 17 17 17 16 16 16 16 16 15 15 15 14 14 14 14 13 13 13 13 13 14 14 14 14 14 13 13 13 13 12 12 12 12
11 11 11 11 12 12 12 13 13 14 13 13 12 13 13 13 13 12 12 13 13 13 13 13 13 14 14 14 14 14 14 15 15 15 15 15 16 17 18 18 17 17 16 15 14 15 16 16 17 17 17 17 17 17 17 17 16 15 15 16 15 15 15 14 14 14 14 13 13 13 13 13 14 14 14 14 14 13 13 13 13 12 12 12 12 12
12 12 12 11 12 12 12 13 14 13 13 12 12 13 13 13 13 12 12 12 13 13 13 13 13 13 14 14 14 14 15 15 15 14 14 14 15 15 16 17 16 16 15 15 14 15 15 15 16 16 16 17 17 17 17 17 16 15 15 15 15 15 15 14 14 14 13 13 13 13 13 14 14 13 13 13 13 13 12 12 12 12 12 12 12 12
13 13 12 12 12 13 13 13 13 13 13 13 13 13 13 13 13 13 12 12 12 13 13 13 13 13 13 14 14 15 17 17 16 15 14 14 14 15 15 16 16 15 14 14 14 15 15 15 15 15 15 15 15 16 16 16 16 16 15 15 15 15 15 14 14 14 13 13 13 13 13 13 13 12 13 13 13 13 13 12 12 12 12 12 12 12
13 12 12 12 12 13 14 14 13 13 13 13 13 13 14 13 13 13 12 12 12 13 12 13 13 13 13 14 14 15 18 19 16 14 14 14 14 15 15 15 15 14 14 14 15 15 15 15 15 15 14 14 15 15 16 15 15 16 16 15 15 15 15 14 14 13 13 13 13 12 12 12 12 12 12 12 12 12 12 12 12 12 12 12 11 11
13 13 12 13 13 13 15 15 14 13 13 13 14 13 13 13 13 13 12 12 13 13 13 13 13 13 13 14 13 14 16 16 14 13 14 14 14 14 14 14 14 14 14 14 14 15 15 15 15 15 15 14 15 15 16 15 15 15 15 15 15 15 14 14 13 13 13 12 12 12 12 12 12 12 12 12 12 12 12 12 12 12 12 12 12 11
13 13 13 13 13 14 14 15 14 13 13 13 13 13 13 13 12 13 12 12 13 13 13 13 13 13 13 13 13 13 13 13 13 13 14 13 14 14 14 14 14 14 13 14 14 15 15 15 15 15 15 15 14 15 15 15 15 15 15 15 15 15 14 14 13 13 13 12 12 12 12 12 12 12 12 12 12 12 12 12 12 12 12 12 12 13
13 14 14 14 13 14 15 15 14 13 13 14 13 13 13 13 12 12 12 12 12 13 13 13 13 13 13 13 12 13 13 13 13 13 13 13 14 14 13 14 14 13 13 13 14 14 14 15 14 14 14 14 14 14 14 14 14 15 15 15 15 14 14 13 13 12 12 12 12 12 12 12 12 12 12 12 12 12 12 12 12 12 12 12 13 13
14 15 15 14 14 14 15 15 13 12 13 14 13 13 13 12 12 12 12 12 12 12 13 13 13 13 13 13 12 12 13 13 13 13 13 13 13 13 13 13 14 14 13 14 14 14 14 14 14 14 14 14 14 14 14 14 14 14 14 15 15 14 14 13 13 12 12 12 12 12 12 12 12 12 12 12 11 11 11 11 11 11 12 12 13 13
Height
772 776 777 776 776 776 776 775 773 773 774 773 773 775 774 774 771 762 756 747 744 751 749 742 740 737 737 735 731 728 727 730 730 729 729 730 731 733 734 736 737 739 736 734 737 741 743 746 749 753 757 760 763 765 768 771 772 772 772 772 772 774 777 779 781 783 786 788 791 794 797 799 802 804 806 808 810 811 813 815 816 817 818 819 820 822
774 779 777 774 775 775 774 773 772 774 774 773 774 775 774 774 771 762 758 750 744 752 750 742 743 741 737 734 729 727 727 728 728 728 727 726 728 728 730 731 733 734 734 735 739 741 743 746 748 751 755 758 760 762 766 768 770 771 772 772 773 774 776 778 778 780 782 785 788 791 794 797 801 803 805 807 808 810 812 814 815 816 817 819 820 821
778 777 773 772 774 773 773 773 774 774 774 775 775 776 776 773 769 762 756 750 746 751 750 743 744 742 737 732 728 726 725 724 722 722 722 722 724 725 726 728 729 732 734 735 738 740 742 744 746 749 753 756 758 761 765 768 770 770 770 771 772 774 775 777 778 779 781 784 787 791 794 797 800 802 804 806 808 810 812 813 814 816 817 818 819 820
780 774 769 770 772 773 773 771 773 774 774 775 774 776 776 771 770 767 758 751 747 748 747 743 744 743 737 732 727 724 722 720 718 718 717 717 719 720 720 722 724 728 732 734 736 738 740 743 744 746 750 754 757 760 763 766 767 767 768 770 771 773 775 777 778 779 781 784 787 791 795 797 799 801 804 806 808 809 811 812 813 815 816 817 819 820
776 769 767 769 770 772 773 771 772 774 775 774 772 773 773 768 768 766 759 754 750 745 743 744 749 744 736 733 728 722 720 719 717 716 717 716 715 715 716 718 720 722 725 729 732 735 738 740 741 742 746 750 753 756 758 761 763 765 766 768 770 772 774 776 777 779 781 784 787 791 794 797 798 801 803 804 806 807 809 810 812 814 815 817 818 819
772 766 766 768 768 769 772 771 770 772 774 773 769 767 766 765 763 761 759 759 760 756 742 743 757 750 734 732 728 721 720 720 717 716 717 717 716 715 717 718 718 719 719 722 725 728 732 735 737 739 743 747 750 751 754 757 761 763 765 767 769 771 773 775 776 778 780 783 785 788 791 793 795 798 800 801 803 806 808 809 811 813 815 816 818 819
767 763 764 766 767 767 769 769 766 767 773 773 764 758 759 761 760 759 759 761 765 761 742 738 755 754 739 732 726 723 723 720 717 715 713 715 716 715 715 716 716 718 719 720 721 723 726 730 734 737 740 743 745 747 751 756 759 761 763 765 767 769 771 773 775 776 779 781 784 786 788 790 793 795 798 801 803 805 807 809 811 812 814 816 817 819
763 762 763 764 766 766 767 767 762 762 770 768 756 752 755 756 758 757 757 760 759 753 745 740 746 753 749 735 723 724 726 722 719 716 711 711 714 713 710 710 711 714 717 720 722 723 724 726 729 733 736 738 740 744 749 753 755 757 760 762 765 767 770 772 774 775 777 779 782 785 787 790 792 795 798 801 803 805 807 808 810 812 813 815 817 818
761 762 763 763 765 766 765 762 757 758 763 759 749 750 752 751 753 752 754 757 754 753 756 748 744 753 752 735 724 725 727 725 720 714 710 707 709 709 707 706 706 709 713 717 720 722 723 724 726 728 730 733 737 742 746 749 752 756 758 761 763 766 769 771 773 774 776 778 781 784 786 789 792 795 798 800 802 804 806 808 809 811 813 815 816 818
761 760 760 761 764 764 760 756 754 756 757 751 747 749 749 749 749 748 752 753 752 758 760 749 744 753 750 734 728 729 727 725 719 711 707 704 703 706 706 705 705 706 710 713 717 720 721 723 725 726 728 731 736 740 744 748 752 755 757 760 762 765 767 769 771 773 775 777 780 782 785 788 791 794 797 799 802 804 805 807 809 810 812 814 816 817
761 759 758 759 759 757 755 753 752 752 751 748 749 749 748 748 748 747 749 749 754 760 755 745 741 747 748 734 726 727 721 716 714 709 705 701 701 704 705 706 705 706 708 710 714 718 720 723 725 727 729 732 737 741 745 748 751 753 756 758 761 764 766 768 769 771 774 776 778 781 784 787 790 793 795 798 800 803 805 806 808 810 812 813 815 817
761 761 758 754 752 752 753 752 750 748 747 748 749 750 750 750 748 750 750 750 761 760 746 739 738 743 747 734 721 718 712 707 709 707 703 700 700 703 703 703 702 704 706 708 711 715 719 723 726 728 731 734 738 741 744 746 749 751 754 757 760 763 765 766 767 769 772 774 777 779 783 785 788 791 794 796 799 801 803 805 807 809 811 812 814 816
759 757 755 752 748 748 753 755 753 748 747 749 749 753 758 756 753 756 756 755 759 753 738 734 737 741 740 726 715 712 708 706 706 703 700 698 698 700 702 702 700 700 702 705 708 711 715 720 723 726 730 733 736 739 741 744 747 750 752 755 758 760 762 763 764 767 769 772 775 778 781 784 787 790 792 795 797 800 802 804 805 807 809 811 813 815
761 756 752 752 749 745 749 754 755 752 747 748 749 752 758 760 760 760 756 754 754 746 734 731 736 739 732 718 708 706 703 701 700 699 698 696 696 697 698 700 699 697 697 700 704 707 711 714 718 721 725 728 732 736 739 742 746 749 751 753 756 758 760 761 762 764 767 770 773 777 780 783 786 788 791 794 796 799 801 802 804 806 808 810 811 813
770 764 751 748 747 743 744 746 749 748 746 745 744 747 753 754 755 755 750 748 748 742 734 733 738 736 727 712 699 695 695 695 694 694 694 694 693 692 693 697 698 696 695 696 698 702 705 708 712 716 720 724 728 732 737 740 744 747 749 751 753 755 757 759 760 762 764 768 772 775 778 781 784 787 790 793 795 797 799 801 803 805 807 809 811 813
771 765 748 743 742 740 744 743 741 744 747 744 739 745 750 746 745 748 746 742 742 740 735 733 731 722 712 702 691 689 691 691 692 692 692 692 690 689 690 693 696 696 694 693 694 697 700 704 707 711 715 720 724 729 733 737 740 743 746 749 751 753 754 755 757 759 762 766 770 774 777 780 783 786 789 792 795 796 798 800 802 804 807 809 811 812
768 761 747 744 742 739 743 741 737 740 744 744 743 744 742 736 736 743 746 743 743 744 737 731 726 716 709 701 692 692 693 691 691 690 689 689 687 688 689 689 692 694 694 693 693 694 697 700 704 707 711 716 721 726 729 732 735 737 741 745 749 751 753 754 755 757 760 764 768 771 775 778 782 785 788 791 793 795 797 799 801 804 806 808 810 812
762 759 747 744 744 737 737 739 737 736 737 743 746 739 733 734 736 740 745 745 746 746 737 730 726 719 719 712 697 693 695 691 689 688 687 687 686 688 687 685 687 690 691 692 692 692 693 696 700 704 708 712 716 720 723 726 730 734 738 742 745 747 748 750 752 755 758 761 765 769 773 777 780 783 786 789 792 794 796 799 800 803 805 807 809 811
759 761 748 742 744 738 735 739 740 735 733 737 736 731 733 741 742 742 745 746 746 745 737 730 725 720 719 715 702 695 694 691 690 690 690 689 687 688 687 683 683 686 688 689 690 691 692 694 698 701 705 709 713 717 720 724 728 732 736 740 742 744 746 748 750 753 757 760 764 767 771 776 779 782 785 788 790 792 794 797 799 801 804 806 808 810
756 762 753 742 743 740 736 740 742 738 733 732 732 731 734 738 740 741 744 744 744 745 740 733 730 722 711 704 701 698 695 694 694 693 692 691 689 688 687 684 682 683 684 684 686 689 690 693 695 697 701 706 710 715 719 724 728 730 734 738 742 745 747 749 750 752 756 759 762 766 770 774 778 781 784 786 789 791 792 795 797 800 802 805 807 809
754 762 758 744 742 743 740 739 739 737 735 735 736 736 735 735 737 739 741 739 738 741 741 738 735 721 703 696 697 697 696 696 696 694 693 691 689 687 685 683 681 680 680 679 681 684 687 690 692 694 698 703 708 713 717 722 726 728 732 736 740 743 744 746 748 751 754 757 761 764 768 773 777 780 783 785 787 789 791 793 796 798 801 804 806 807
754 761 760 751 747 747 742 737 736 736 736 735 735 734 733 734 737 742 744 737 732 736 736 736 736 718 698 693 693 695 698 697 696 696 694 691 688 686 684 682 679 676 675 675 676 679 683 685 688 691 696 701 707 712 716 720 724 727 730 734 737 740 741 743 745 749 752 756 759 763 767 771 775 778 781 783 786 787 789 792 794 797 799 802 804 806
750 760 764 758 751 746 740 736 736 736 737 737 736 732 731 732 734 741 745 737 732 732 727 730 734 716 696 693 695 696 697 696 696 695 693 690 687 685 683 679 675 671 669 669 671 673 676 679 682 687 693 699 704 709 714 717 721 723 726 731 735 737 738 740 743 747 751 754 757 761 766 770 774 777 779 782 784 786 788 790 793 796 798 801 803 805
749 758 764 759 749 742 736 734 734 734 736 739 737 732 730 730 729 732 734 731 733 732 727 732 733 714 697 694 693 693 692 692 692 692 691 689 684 682 680 674 668 665 664 665 666 668 672 675 679 684 690 696 701 706 711 714 717 720 724 729 733 735 737 739 742 746 750 753 756 760 765 769 772 775 778 780 782 784 787 789 792 795 797 799 802 804
750 756 761 760 756 747 737 735 736 735 737 736 732 728 728 726 726 729 729 730 734 730 728 733 728 709 698 694 690 691 692 691 690 689 689 688 683 681 677 669 663 661 660 662 664 666 670 674 679 683 688 692 697 702 707 711 715 718 723 727 731 733 736 739 742 745 748 751 755 759 763 767 770 773 776 778 781 783 786 789 791 793 796 798 801 804
747 753 756 756 757 751 742 737 733 732 733 732 726 725 725 723 725 728 729 733 735 727 723 727 721 708 700 697 694 693 694 693 690 687 685 685 685 682 675 667 661 657 657 659 662 666 669 672 676 681 684 689 693 698 703 708 712 716 721 725 728 731 734 737 740 743 746 749 753 757 761 765 768 771 774 777 779 782 785 787 790 792 794 797 800 802
747 751 749 747 745 742 738 733 727 726 729 729 724 722 722 721 722 725 728 731 729 724 723 721 715 710 704 699 698 695 694 694 690 685 683 684 686 682 674 667 661 655 654 656 660 664 667 670 674 677 681 685 690 695 700 704 709 713 718 721 725 728 731 735 738 740 744 747 751 755 759 762 766 769 772 775 778 781 784 786 789 791 793 796 799 801
749 748 743 743 740 734 732 730 726 727 730 727 722 720 720 719 719 723 727 725 720 723 725 715 711 712 704 699 699 695 693 692 687 684 685 686 685 679 672 667 661 655 654 655 658 662 665 668 672 675 678 683 687 693 697 702 706 710 714 717 721 725 729 732 736 738 741 745 749 753 757 760 764 767 770 773 776 780 783 785 788 790 792 795 798 800
748 744 738 740 739 732 730 730 727 728 730 727 721 717 717 717 717 720 722 719 716 720 719 710 708 709 701 696 696 692 691 690 685 684 685 685 681 675 669 667 660 655 654 655 657 659 662 665 668 672 676 680 685 691 695 700 705 708 712 716 719 723 726 730 733 736 739 743 746 750 755 759 763 765 769 772 775 778 781 784 787 789 792 795 797 799
746 741 734 738 737 730 728 728 727 730 732 728 721 715 715 716 716 716 716 714 713 714 712 707 707 704 696 693 689 684 685 688 685 684 684 682 679 673 669 665 658 653 653 653 654 656 659 662 664 668 674 678 683 688 693 698 702 706 710 714 718 721 724 728 731 734 737 741 745 749 753 758 761 764 767 771 774 777 780 783 786 788 791 794 796 798
744 737 732 737 738 730 724 723 726 729 731 729 722 715 714 714 714 714 712 711 712 711 708 706 707 701 691 685 683 681 684 686 684 682 680 678 675 673 669 662 655 652 651 651 653 654 656 660 663 667 672 676 680 685 690 694 699 703 707 711 715 719 722 726 729 732 736 739 743 747 751 755 759 762 764 768 772 775 778 781 784 787 790 793 795 797
743 738 733 735 734 725 720 720 721 723 728 730 723 715 713 712 709 708 708 706 707 707 707 708 708 700 686 679 681 682 684 684 680 676 675 674 672 671 669 661 653 650 650 650 652 654 656 659 663 666 670 674 677 682 687 691 696 701 705 708 713 716 720 724 727 731 734 738 742 746 749 753 757 760 763 766 769 773 777 780 782 785 789 791 793 796
740 738 731 728 726 719 718 720 716 717 723 720 710 704 704 705 703 702 702 700 698 700 703 704 698 689 681 680 683 684 682 680 675 670 670 670 668 666 665 660 654 650 648 649 652 653 655 657 659 662 666 671 675 679 683 687 692 696 701 705 710 714 719 722 726 730 733 737 740 744 747 751 754 758 762 764 768 771 775 778 780 783 787 789 792 794
734 733 727 724 721 717 720 721 716 715 712 701 691 690 692 694 696 697 697 695 693 693 692 690 686 681 681 683 684 683 679 674 669 666 666 667 665 662 659 657 654 651 648 649 651 652 652 653 656 660 664 668 673 677 681 685 689 693 698 704 708 713 717 720 724 728 731 735 738 741 745 749 752 756 759 762 766 770 773 775 778 782 785 788 790 793
728 727 725 724 721 716 714 713 712 710 700 689 687 688 686 686 688 691 691 689 688 688 686 685 683 681 680 680 678 675 672 668 665 663 661 661 659 657 655 652 650 649 649 649 650 652 653 653 655 659 663 668 673 677 682 686 689 694 699 703 707 711 715 718 722 726 729 732 736 739 743 746 750 754 757 759 763 768 771 774 777 780 784 786 789 791
724 724 722 722 720 715 712 711 710 705 694 686 688 689 687 688 690 693 695 689 684 684 684 684 681 678 677 673 668 667 669 668 663 654 648 650 652 650 649 647 644 645 647 647 648 650 651 651 653 656 661 667 673 678 682 685 689 694 698 702 706 710 713 717 720 723 727 730 733 737 740 744 748 752 755 757 761 765 769 772 775 779 782 785 788 790
721 722 720 718 718 716 716 712 705 697 694 694 693 693 694 695 694 696 696 690 684 684 683 681 678 675 672 667 663 666 670 670 664 648 636 637 643 643 642 642 640 639 640 643 646 648 650 650 652 655 660 665 670 674 679 684 688 692 697 701 705 709 712 715 718 721 724 727 731 735 738 742 746 750 753 756 759 763 767 771 774 777 781 783 786 789
718 719 718 717 718 717 716 714 705 699 700 702 699 696 697 696 695 694 692 687 684 684 683 681 677 673 670 666 666 670 671 671 667 650 631 630 637 639 637 637 637 636 638 644 648 650 653 655 656 659 662 664 668 672 676 681 686 690 696 700 703 707 710 712 715 718 722 725 729 733 736 740 744 747 751 754 757 760 765 770 773 776 779 782 784 787
717 718 717 717 718 718 718 721 717 708 704 703 700 695 694 693 690 689 690 686 683 682 684 685 682 677 675 672 671 672 674 676 669 651 634 632 637 638 635 634 636 636 639 647 652 651 653 657 658 660 663 666 669 672 676 680 684 689 693 698 701 705 708 710 713 716 719 723 727 731 735 739 742 745 748 752 755 759 764 768 771 775 778 782 784 787
719 721 720 719 720 720 721 723 719 708 702 701 699 694 691 688 684 687 691 690 685 684 685 686 684 681 679 675 673 674 676 675 663 647 637 635 635 636 636 636 639 640 641 647 652 652 654 657 658 659 662 665 668 671 674 679 683 687 691 695 699 702 704 708 711 714 719 723 727 730 734 738 741 743 746 750 754 760 764 767 770 774 778 781 784 786
725 726 725 722 721 721 723 722 713 704 702 702 700 694 689 684 683 688 693 691 689 687 685 685 685 682 679 677 676 675 672 666 656 647 642 638 634 634 634 634 638 642 645 647 648 649 653 655 655 656 657 660 665 669 673 677 681 686 690 694 697 700 702 707 711 714 719 722 726 730 734 738 742 745 748 750 753 758 763 766 769 773 776 780 783 785
731 729 725 724 723 723 725 723 712 703 700 702 699 693 687 685 686 690 692 690 690 687 684 685 683 679 678 678 676 672 668 663 656 650 645 639 635 634 635 636 640 646 650 650 647 646 648 651 653 655 657 660 664 667 671 675 680 684 688 692 695 698 702 707 711 714 718 722 725 730 734 739 744 746 748 751 753 756 760 764 769 772 775 779 781 784
737 733 727 727 727 724 724 722 715 705 700 701 702 697 693 693 694 693 692 690 688 686 684 684 681 677 678 677 673 670 667 661 654 648 644 639 636 636 638 640 644 649 652 653 651 649 649 650 650 653 656 659 663 665 668 673 678 683 687 691 695 699 703 706 710 714 718 721 725 729 733 737 742 744 747 751 753 755 758 762 767 771 774 777 779 782
737 735 732 731 729 727 726 722 715 708 703 703 706 704 700 698 696 694 694 692 689 686 686 685 681 678 677 677 674 670 664 656 650 647 646 644 640 639 640 641 643 646 647 647 647 647 650 653 654 654 656 659 662 665 668 672 677 682 687 691 695 699 703 707 710 714 717 721 724 728 732 735 739 743 747 750 752 754 757 761 765 769 772 775 777 780
730 728 730 731 728 726 724 718 710 707 704 703 704 703 699 696 694 693 693 691 687 684 683 683 681 677 675 674 670 664 656 651 648 648 648 646 642 641 642 641 642 644 644 644 644 644 647 653 658 661 663 665 666 667 669 672 677 682 687 691 695 699 703 707 710 713 716 720 723 727 731 734 738 742 745 748 750 753 756 759 763 767 770 773 776 778
723 724 726 727 724 720 716 711 709 708 704 700 700 699 697 695 693 692 691 690 686 682 680 679 677 675 672 668 664 658 651 645 646 649 649 647 644 642 641 640 640 642 643 644 645 646 648 652 657 662 666 669 672 673 674 677 680 683 687 691 694 698 702 705 709 712 716 719 722 726 730 733 737 741 744 746 749 751 754 758 761 764 768 771 774 777
722 725 725 724 723 719 711 707 708 709 704 699 698 696 694 693 692 691 691 689 685 681 678 675 673 671 668 663 660 657 648 642 647 654 653 650 647 645 643 641 640 641 642 642 643 645 647 650 654 659 663 666 669 672 675 679 682 685 688 691 693 697 701 704 708 712 715 718 721 725 728 732 736 740 743 746 748 751 754 757 760 763 765 768 771 774
722 724 724 722 722 718 710 704 704 706 703 699 697 696 695 694 692 690 690 687 681 677 675 673 670 669 666 662 662 660 654 650 655 660 657 654 651 648 646 645 644 643 644 644 644 645 647 648 651 655 658 661 663 665 668 673 677 681 685 689 693 697 700 704 707 710 714 717 720 723 727 730 734 737 741 744 747 750 753 756 758 760 762 764 766 770
723 724 721 720 719 715 708 704 704 705 702 698 697 697 697 696 693 691 689 686 681 678 676 673 669 667 666 666 667 666 664 661 662 661 659 657 654 652 650 648 647 647 647 647 647 648 649 650 652 654 657 661 665 668 670 673 677 681 684 687 691 695 699 703 707 710 713 716 719 722 726 729 733 736 739 742 745 748 751 753 756 757 759 762 764 766
723 721 718 718 719 715 707 705 707 709 705 700 698 697 696 695 694 691 689 687 684 681 678 673 670 668 668 669 670 669 667 665 663 661 661 659 657 655 652 649 648 647 647 648 649 650 651 653 655 657 659 663 667 672 675 677 680 684 686 688 690 694 698 702 706 709 713 715 718 721 724 728 732 735 737 741 744 747 750 753 755 757 759 761 764 766
723 720 717 719 719 712 705 705 709 711 706 700 698 697 696 695 693 692 691 689 685 682 678 674 673 672 671 669 669 668 666 664 663 662 661 661 659 656 653 650 648 648 648 648 649 650 652 653 654 657 661 663 666 672 677 681 684 686 687 689 690 692 696 700 704 708 711 714 717 720 722 726 730 734 737 740 743 746 748 751 754 757 759 761 763 765
Wind_Speed
1 1 2 5 5 4 4 5 7 5 3 4 5 4 4 4 4 5 7 9 3 2 6 9 13 13 10 9 8 8 7 6 9 10 11 11 11 11 13 14 13 14 14 13 16 18 20 22 23 23 25 26 27 29 32 33 33 34 36 37 36 38 39 38 37 35 34 32 31 30 29 28 27 27 25 24 25 25 25 23 22 22 21 19 17 15
2 1 7 6 4 5 6 7 7 5 4 6 5 5 5 4 6 6 7 11 6 2 6 8 10 10 8 8 7 7 8 7 9 11 12 13 12 12 14 17 16 14 10 8 9 13 18 21 23 25 26 28 29 30 33 34 35 35 36 36 36 36 37 38 38 36 34 34 33 31 29 29 27 27 26 26 27 27 25 23 23 22 21 19 18 16
2 6 9 7 5 6 6 6 6 6 6 5 4 4 5 3 5 7 7 10 7 2 5 8 8 8 6 7 8 7 7 8 9 12 13 13 13 12 14 16 15 13 10 9 9 12 18 23 25 26 27 29 31 30 31 32 34 36 36 36 36 36 36 37 37 35 34 33 33 30 28 28 27 27 27 27 27 27 24 23 23 22 21 19 18 16
4 6 6 5 5 5 6 7 6 6 5 5 4 4 5 3 3 5 5 6 7 4 5 7 7 6 5 6 8 8 8 8 9 11 13 12 14 15 15 15 16 16 13 12 12 12 16 21 25 26 27 30 30 30 32 33 35 36 36 35 35 36 35 35 35 34 33 31 31 29 27 27 26 26 27 27 28 27 25 24 23 21 19 18 17 16
8 8 3 3 4 5 6 7 6 5 4 5 6 6 6 5 5 6 6 6 8 8 6 5 7 5 4 6 7 7 7 8 8 9 11 11 12 14 14 15 16 17 16 16 15 14 14 17 23 27 29 30 31 32 35 37 37 36 35 34 35 36 35 34 34 34 33 31 30 27 26 25 24 24 27 27 27 26 26 24 23 20 18 17 17 16
8 8 4 5 6 5 6 6 6 5 4 5 6 8 9 8 8 8 7 4 4 8 5 3 3 6 3 6 8 6 6 7 7 8 10 10 10 12 12 13 14 15 16 17 18 18 15 17 23 27 29 30 31 35 38 39 37 35 35 35 35 36 36 34 34 35 34 33 32 30 28 27 25 25 26 27 27 26 26 24 22 20 18 17 17 16
5 5 4 5 6 5 5 6 7 6 4 5 5 8 10 10 10 10 9 5 3 6 5 4 4 5 4 4 7 5 5 7 7 8 10 9 9 10 12 13 14 13 13 15 17 18 18 19 20 22 27 32 34 37 38 37 36 36 36 37 37 37 37 35 35 35 36 34 33 32 31 28 27 25 25 26 27 27 26 23 21 20 18 17 16 15
3 2 1 2 3 4 4 5 6 7 5 5 6 8 9 9 10 11 9 6 4 6 6 1 3 4 4 5 7 3 3 7 7 9 11 9 9 12 14 15 16 15 13 13 14 15 17 19 21 24 30 35 37 36 36 36 38 38 38 38 38 37 37 36 36 36 36 36 34 33 31 28 27 26 25 25 26 26 25 23 21 20 18 17 15 14
2 3 4 3 3 3 4 5 6 6 4 6 8 8 8 9 10 10 7 6 5 5 6 4 4 3 5 5 6 3 3 7 7 9 12 10 11 13 15 16 17 16 15 14 14 15 15 17 23 30 34 37 37 36 36 38 38 38 38 38 37 36 36 36 36 36 36 35 34 33 30 28 26 26 27 26 25 24 23 23 21 20 18 16 15 14
3 4 5 4 3 4 5 7 7 5 4 7 6 5 6 7 8 8 6 5 4 4 6 7 5 4 5 5 5 3 4 7 7 9 11 11 11 11 12 13 14 14 13 14 14 14 15 20 27 32 33 34 33 34 35 35 36 37 36 36 36 36 36 36 37 36 35 35 34 33 31 29 27 25 26 26 24 23 23 23 22 20 19 17 16 16
3 3 3 3 4 4 5 7 5 5 7 6 5 5 5 5 5 5 4 4 3 3 7 9 7 6 6 5 4 4 5 7 7 8 9 9 9 7 9 10 11 11 11 13 13 13 15 22 28 29 28 28 28 29 31 33 35 36 35 35 35 36 35 36 37 36 35 35 35 34 32 31 29 27 27 26 24 24 24 24 23 21 20 19 18 18
4 4 3 4 6 5 5 6 5 7 6 3 3 3 3 4 2 3 2 3 4 5 7 9 7 8 7 5 4 6 8 8 7 7 9 10 8 6 8 10 12 12 11 12 14 14 15 17 20 21 21 23 24 26 30 33 35 35 35 35 35 34 35 37 37 37 36 35 35 34 33 32 31 29 29 27 26 26 25 25 24 22 21 20 20 20
4 5 3 3 5 7 5 5 4 6 4 4 3 1 1 3 1 3 3 3 4 5 6 6 6 6 7 6 7 10 9 9 8 8 10 11 9 6 8 10 11 12 13 13 13 14 15 15 15 17 20 22 24 27 31 33 33 34 35 36 36 35 36 38 38 37 37 36 35 34 34 33 32 31 30 29 28 28 27 27 26 25 24 23 22 22
3 5 3 2 4 6 8 6 4 3 3 4 4 2 3 2 1 3 3 2 3 4 6 6 6 3 5 5 10 13 12 11 10 10 10 11 10 9 8 10 11 12 14 14 14 15 15 16 15 18 23 25 25 29 31 32 33 33 34 36 37 36 36 38 38 38 37 36 35 34 34 33 32 31 30 30 30 29 29 28 28 27 26 25 23 22
2 5 3 5 3 3 7 7 6 5 4 3 3 4 3 3 3 3 3 3 3 4 4 4 4 4 4 5 9 12 12 11 10 9 9 9 10 10 7 8 11 12 13 14 15 17 18 18 19 22 25 27 28 30 32 33 34 33 34 36 37 36 36 37 38 38 37 36 35 34 34 34 33 32 31 30 30 31 30 30 29 28 27 26 24 23
4 6 5 5 4 3 4 4 5 5 5 4 2 3 2 3 4 2 2 4 3 2 3 2 3 4 4 5 7 8 9 8 7 7 7 8 9 9 7 6 10 11 12 14 15 17 18 19 21 24 26 28 29 30 32 34 35 35 35 36 37 37 37 38 39 38 37 36 35 34 34 34 33 32 31 30 30 31 31 30 29 29 28 26 25 23
3 5 4 3 4 5 7 5 4 5 3 1 1 3 4 4 4 1 3 2 2 1 3 2 2 4 4 6 7 5 6 7 6 6 7 8 10 8 8 6 7 10 11 12 14 16 18 18 20 24 27 28 29 31 34 37 39 40 37 36 36 35 36 37 38 37 37 36 35 34 34 34 34 33 33 32 31 31 31 30 29 29 27 26 25 23
2 5 5 2 6 7 6 5 3 5 4 2 1 4 3 1 2 2 1 2 1 2 4 1 3 3 4 5 5 2 6 7 7 7 7 9 10 8 9 10 7 10 12 13 15 17 18 18 19 23 28 30 33 36 39 41 42 40 38 38 38 37 37 38 38 37 36 36 35 34 34 34 34 34 34 33 32 32 31 30 30 29 28 26 25 24
3 4 6 4 7 7 2 3 4 6 6 5 4 3 0 1 1 0 2 0 1 3 3 3 3 4 5 4 3 2 6 8 7 6 7 7 9 8 8 12 10 8 12 13 15 15 16 16 18 23 28 30 33 36 39 40 39 38 37 37 37 37 37 37 36 35 35 35 35 34 34 34 34 34 34 33 33 32 32 32 31 30 29 27 26 25
3 2 5 3 3 2 2 1 3 4 4 5 4 2 1 3 2 1 2 3 2 2 2 3 2 2 5 5 4 5 6 6 5 5 6 7 8 8 8 10 11 8 11 13 15 15 16 16 19 25 29 30 33 36 36 35 35 36 35 34 33 33 32 33 33 33 33 34 34 33 33 34 34 34 34 34 34 33 33 33 33 31 29 28 27 25
2 3 4 4 2 1 1 2 5 4 3 3 4 3 3 2 1 0 1 2 2 2 2 1 2 5 6 3 6 6 4 4 4 5 6 7 8 9 9 11 11 10 12 14 15 15 17 17 20 27 31 32 34 34 33 33 34 35 33 32 33 33 32 33 33 33 34 33 33 33 34 34 34 34 34 34 34 34 33 33 33 32 30 28 27 26
3 2 3 4 3 1 5 4 4 4 2 2 4 4 5 4 2 0 3 3 1 3 3 1 3 6 5 1 5 3 2 3 5 6 7 8 9 11 11 12 13 12 13 15 16 16 17 17 19 25 28 29 29 29 29 31 32 32 31 32 33 33 34 35 35 35 35 33 33 34 34 34 34 34 34 34 33 33 33 33 33 32 29 28 28 27
3 1 3 5 4 5 8 7 5 5 4 3 4 3 3 4 4 3 3 3 1 2 1 1 2 4 1 2 4 3 4 5 5 6 7 8 10 11 13 15 14 14 15 16 17 17 17 18 20 23 25 27 28 28 29 31 31 32 32 32 33 33 34 35 35 35 34 33 33 33 34 34 34 34 34 34 33 33 33 33 32 31 29 29 28 28
3 2 2 5 5 5 8 8 7 6 4 3 4 4 3 4 5 5 5 3 1 3 1 1 3 4 1 1 3 5 8 8 7 7 8 10 12 12 15 18 13 14 16 17 18 17 17 17 17 18 19 22 26 27 29 30 31 32 31 31 32 33 33 33 34 34 33 33 33 33 34 34 34 34 34 34 33 33 32 31 31 31 29 28 29 29
3 2 2 3 3 4 3 2 3 2 4 3 3 4 5 6 6 4 3 3 2 4 4 3 6 5 2 7 9 9 11 12 11 8 7 9 13 13 15 17 12 14 16 17 18 17 17 16 15 15 15 19 25 26 28 30 30 30 30 31 32 32 32 32 33 33 33 33 33 34 34 35 34 34 34 34 33 32 31 31 31 30 28 28 30 31
3 3 3 3 3 4 2 1 2 2 3 2 3 6 7 7 8 4 2 3 4 5 6 5 6 5 6 9 10 9 10 13 14 12 9 9 11 13 15 15 11 13 15 16 17 16 16 16 16 17 16 20 25 26 27 29 29 29 30 31 32 32 32 32 33 33 33 33 34 34 34 35 35 35 35 34 32 32 31 31 31 29 27 29 31 32
1 3 6 7 7 6 5 5 4 2 2 3 5 9 8 8 9 6 3 4 4 4 5 5 5 8 11 10 9 10 11 13 13 13 12 10 11 13 13 15 12 13 14 15 16 16 16 16 17 19 18 20 25 27 28 30 30 30 31 31 32 33 33 32 32 33 34 34 35 34 35 35 35 35 34 33 33 32 32 32 30 27 27 30 33 33
1 3 7 10 12 12 9 9 7 1 1 4 6 8 8 7 9 8 6 6 4 3 5 6 3 8 12 10 9 11 13 13 13 13 12 11 12 12 12 15 14 13 13 14 16 17 18 18 18 19 17 19 24 27 28 29 31 32 32 32 33 34 33 32 32 33 34 35 35 34 35 36 35 35 35 34 34 33 32 32 29 26 28 32 33 33
1 3 5 8 12 13 10 10 9 5 4 5 6 8 8 8 9 8 7 7 5 4 6 7 7 11 13 11 12 13 12 13 14 13 10 10 12 12 13 15 13 13 15 16 18 18 19 19 18 18 17 19 23 25 26 28 29 30 29 30 31 33 33 33 32 33 34 34 35 35 35 35 35 35 34 33 33 33 33 31 28 27 30 33 33 33
0 3 4 5 8 10 9 10 9 7 6 6 7 8 9 9 9 7 6 7 7 7 8 8 11 14 12 11 14 15 12 10 11 10 9 10 11 11 13 15 12 13 15 17 18 18 19 20 19 19 18 17 20 24 26 26 27 29 29 29 30 31 33 33 32 33 34 34 34 34 35 35 34 35 34 32 32 32 32 31 29 29 31 33 33 32
2 2 3 4 3 5 7 8 9 9 7 7 8 7 8 9 9 9 8 7 6 7 7 7 10 12 10 11 14 13 9 7 9 10 10 10 9 9 13 13 10 13 15 17 18 18 19 19 18 18 18 18 22 26 27 27 28 29 29 30 31 31 33 33 32 32 33 33 33 34 35 34 33 34 35 34 33 32 32 32 30 30 31 32 32 32
4 2 1 3 1 2 4 4 7 8 6 6 9 8 9 10 8 8 7 7 7 8 7 6 7 9 11 11 9 8 7 8 12 13 11 9 8 8 11 11 8 13 15 16 17 18 18 18 18 19 18 19 24 27 28 28 28 28 28 30 31 32 33 33 32 32 32 32 33 35 36 35 34 33 33 34 34 33 33 32 30 30 31 31 32 32
4 3 2 1 1 2 3 5 5 3 5 4 8 9 12 10 8 7 6 8 10 8 6 6 8 10 10 8 6 7 9 10 13 12 9 8 9 9 9 9 7 11 14 15 16 17 18 18 18 19 20 21 25 29 31 31 31 30 31 32 31 32 32 32 31 31 32 32 34 35 36 36 36 34 33 33 34 34 33 32 30 31 32 32 32 32
3 3 2 1 1 2 3 4 1 4 4 5 5 8 14 13 12 11 9 10 11 9 7 8 8 10 9 6 6 8 10 11 13 11 8 7 8 10 10 8 7 8 12 14 15 16 18 17 17 19 23 26 30 32 33 34 33 32 32 32 31 32 32 32 31 31 31 33 34 36 36 36 36 35 35 35 34 33 33 32 31 31 32 32 32 32
3 4 2 0 1 2 1 2 3 2 4 6 3 1 9 13 14 13 12 12 13 12 11 10 11 12 10 7 7 9 10 12 13 13 12 10 9 9 10 10 8 7 9 12 15 15 16 16 15 16 21 27 29 29 29 30 30 29 29 30 31 31 32 32 31 31 32 33 34 36 36 36 35 35 35 36 36 34 32 31 31 31 31 32 32 32
4 2 1 1 1 2 3 3 2 4 5 4 5 5 0 4 6 7 9 10 10 9 9 10 12 13 10 8 8 8 8 10 12 15 14 10 10 10 10 10 9 8 9 12 15 16 16 18 20 21 24 27 28 27 27 28 28 28 29 29 30 30 30 31 31 31 32 33 35 36 36 36 35 34 33 35 36 34 32 31 31 31 32 32 32 32
3 2 1 1 1 1 1 2 3 2 4 5 4 4 3 2 2 3 5 7 6 3 4 5 8 9 8 8 9 6 6 9 11 15 14 5 5 9 10 9 9 11 12 13 14 16 19 22 24 27 28 29 30 29 29 29 29 29 28 28 28 28 29 30 30 31 32 33 35 36 37 37 36 34 33 34 35 33 31 31 31 31 32 32 31 31
1 1 0 1 1 1 1 3 3 3 3 3 6 6 4 3 6 5 3 4 4 1 1 2 5 7 7 7 8 6 6 8 9 12 15 10 2 4 5 6 8 8 8 9 11 13 16 18 21 25 27 28 29 30 31 30 31 29 27 27 28 28 28 29 29 31 33 34 36 37 37 37 37 36 34 34 34 33 31 30 31 31 32 32 32 31
3 1 1 1 1 1 1 1 2 1 1 5 8 10 7 5 7 3 1 3 4 3 4 4 5 7 7 7 7 4 4 6 8 10 15 14 5 3 1 2 2 4 6 7 11 12 15 18 21 23 24 24 25 28 30 31 31 30 27 27 28 28 27 28 30 33 34 35 37 38 37 37 38 38 36 34 33 32 32 31 31 31 31 31 31 30
4 3 2 2 2 1 2 1 3 2 1 4 8 12 11 6 1 3 1 4 5 5 6 5 7 9 7 7 6 3 1 5 9 11 11 12 7 3 4 1 1 3 6 10 13 13 16 20 21 21 22 24 26 28 31 32 30 28 27 27 27 27 28 30 31 34 35 36 36 36 36 36 36 36 35 34 32 30 30 30 30 29 30 29 28 29
3 2 1 1 2 2 1 1 3 2 2 4 8 12 11 5 3 3 3 4 4 7 8 6 8 9 7 7 7 4 5 9 12 13 13 12 8 1 4 3 2 2 4 10 17 21 19 20 23 24 26 28 29 30 31 32 29 27 27 27 26 27 29 30 31 33 35 35 36 35 35 33 31 29 31 32 31 29 29 29 29 29 29 28 28 28
2 3 1 1 2 2 0 1 3 3 3 3 10 13 7 2 1 2 3 4 6 8 7 8 9 9 8 9 8 7 9 12 13 13 12 9 6 2 4 4 1 5 10 10 16 24 24 21 22 23 24 27 30 31 32 31 28 26 26 26 25 26 27 29 31 33 34 35 34 34 33 30 29 30 31 31 31 30 29 29 29 30 30 29 29 29
1 3 3 2 2 2 1 2 3 3 2 5 11 10 4 2 2 5 6 7 7 7 7 8 9 10 9 10 10 11 13 13 9 7 7 5 5 6 7 8 9 10 9 8 9 13 14 16 21 24 25 28 30 32 33 31 27 25 25 24 23 25 27 29 31 32 32 33 32 32 32 32 32 32 32 30 31 31 30 30 29 29 30 30 29 28
1 1 2 1 2 2 2 2 2 4 6 6 5 4 4 4 5 6 6 7 6 4 4 5 8 10 10 9 10 12 12 8 5 6 7 4 1 1 3 6 9 10 11 11 10 8 5 3 10 17 23 26 29 30 31 30 27 24 22 23 24 26 28 30 31 31 31 31 31 31 32 34 33 33 32 32 31 30 30 31 30 30 30 30 29 28
1 2 1 1 2 1 2 5 6 6 8 7 3 4 6 7 7 6 6 6 6 4 3 4 7 10 10 9 9 8 6 3 4 5 5 4 3 3 2 1 2 4 6 9 12 14 13 9 7 8 11 17 23 26 28 29 29 25 22 24 27 29 30 31 31 31 31 30 30 30 32 33 33 33 33 32 32 31 30 30 30 29 29 29 29 29
2 2 2 2 2 3 4 6 6 5 8 8 5 4 5 7 7 7 6 6 6 6 5 5 7 10 9 6 5 6 5 2 4 5 5 3 3 2 2 2 3 5 7 8 10 14 18 19 16 13 12 10 11 13 15 19 24 25 25 28 31 32 33 33 32 30 30 30 30 31 32 32 31 30 30 31 31 31 31 31 31 30 29 29 29 28
2 1 2 1 2 2 3 4 3 3 8 9 6 4 5 7 7 6 6 6 6 6 6 6 7 8 9 5 4 7 7 3 4 5 6 4 4 2 1 2 3 5 7 10 14 17 20 19 16 16 17 17 18 21 20 20 24 25 27 30 33 33 33 33 32 30 29 29 29 30 31 30 29 27 27 28 28 28 29 30 31 31 31 31 29 27
3 1 1 2 2 2 4 6 4 4 8 8 4 3 5 7 9 8 7 7 6 6 7 8 8 7 8 7 6 8 8 6 4 4 5 4 3 2 1 1 2 4 6 9 14 18 18 17 16 18 20 22 27 32 34 32 32 31 31 32 33 33 33 32 31 29 28 28 29 29 29 29 29 28 27 27 28 28 28 30 31 32 33 34 33 31
3 2 2 1 2 3 5 6 6 4 4 5 4 3 4 5 8 10 10 9 8 8 8 9 8 7 7 8 8 7 6 5 4 3 4 3 3 3 2 2 3 5 6 8 11 13 13 14 15 18 19 18 19 23 26 28 28 28 31 34 34 34 33 31 29 28 28 28 28 28 28 29 29 29 29 28 29 29 29 31 33 33 33 34 35 35
3 4 3 2 4 4 5 6 6 4 5 5 4 5 6 6 7 9 11 10 9 8 8 9 11 10 8 5 4 3 2 3 4 4 4 3 4 3 2 3 4 4 7 10 11 11 12 13 15 16 17 16 15 15 17 20 23 26 30 34 35 34 33 30 27 26 26 26 27 27 28 29 29 29 28 28 28 28 27 27 29 30 31 32 33 34
2 4 5 5 6 7 7 6 4 3 6 6 3 4 6 6 7 9 9 8 9 9 9 9 9 10 8 5 3 2 2 4 5 5 4 4 4 3 2 4 4 4 6 10 11 11 12 15 18 18 17 18 19 18 16 17 20 25 30 33 35 35 34 31 28 25 25 26 27 28 30 29 28 27 27 27 27 28 26 25 24 25 28 29 30 30
Wind_Direction
86 34 263 228 238 233 241 244 240 271 328 290 286 277 256 270 275 266 280 283 285 267 239 230 247 254 252 253 250 263 259 207 210 212 200 193 190 190 189 195 200 203 211 208 199 193 187 186 185 182 180 179 178 181 185 187 187 186 184 184 184 186 188 189 189 188 189 190 192 196 198 199 201 204 207 210 215 217 217 217 219 221 223 224 225 225
34 289 253 241 241 240 245 246 249 261 265 267 269 276 274 254 266 271 274 283 288 269 262 257 263 266 256 252 249 245 250 237 212 211 209 196 192 193 190 193 197 202 203 184 175 175 176 178 177 177 177 177 178 181 185 187 187 187 187 187 185 184 186 188 188 187 189 192 193 194 195 196 197 201 206 209 211 215 216 216 218 220 221 223 223 222
303 259 255 252 239 241 258 254 257 259 249 259 259 265 274 254 273 274 263 275 281 257 266 271 270 272 261 245 247 235 232 240 218 208 212 199 191 195 193 192 194 196 191 175 172 172 175 176 175 175 177 180 181 182 185 188 188 189 189 188 186 185 186 188 190 189 190 193 195 196 195 195 195 200 206 209 211 213 214 214 215 218 221 221 219 219
253 253 246 247 235 231 259 254 247 262 256 247 244 250 261 249 255 269 270 282 286 262 252 275 282 274 265 258 257 243 228 241 232 213 215 205 193 196 196 192 191 191 187 183 182 178 179 179 176 176 178 180 181 181 185 189 190 191 190 189 187 186 187 189 191 191 191 191 193 196 197 195 195 199 203 207 210 211 211 211 212 215 218 218 218 218
249 261 257 266 253 217 246 262 242 240 256 243 231 231 244 243 227 238 269 298 305 286 253 263 295 286 246 241 256 257 240 242 242 225 222 218 201 199 199 196 194 189 185 184 185 183 181 181 181 180 180 179 180 183 187 190 191 191 190 189 188 187 187 189 189 190 189 186 186 186 186 186 188 191 196 200 203 204 206 208 210 210 212 215 216 217
256 258 243 259 266 234 231 256 241 213 239 257 233 224 228 233 236 242 261 278 301 289 258 172 263 285 267 238 240 249 253 250 250 238 230 225 208 200 200 202 202 197 190 185 184 184 181 183 185 182 179 178 182 188 190 191 191 191 190 189 189 189 188 189 188 187 186 183 182 179 176 176 178 182 190 196 197 200 203 206 206 206 208 212 213 215
253 239 211 228 250 252 238 247 241 203 214 259 232 217 221 225 236 243 245 235 218 260 259 146 193 270 312 283 248 233 254 264 263 254 237 222 208 200 197 199 203 202 198 193 189 185 181 182 184 181 179 182 187 191 190 190 190 191 190 190 190 190 189 189 187 185 184 183 182 182 181 181 181 182 188 195 198 201 203 203 204 204 204 208 210 211
225 240 285 250 241 259 248 248 236 194 191 248 238 220 217 218 229 235 233 229 219 246 270 194 175 260 295 276 262 245 271 280 277 268 253 226 203 203 202 198 199 198 194 195 196 190 185 183 182 181 183 188 191 190 187 188 190 190 190 192 191 190 190 189 187 185 185 184 183 184 185 185 185 186 188 192 197 200 201 200 200 201 201 203 206 207
205 239 272 270 267 259 238 248 240 195 191 244 245 234 223 218 225 231 227 233 234 236 273 261 191 244 266 255 270 283 272 277 272 260 258 242 211 203 206 203 198 195 190 190 193 193 191 187 187 187 188 191 190 187 186 188 189 189 191 191 190 190 190 189 186 185 185 186 185 185 184 183 185 187 189 191 194 196 197 197 196 197 198 198 200 202
221 226 240 232 245 244 241 256 244 205 221 254 265 263 244 227 225 230 219 222 234 210 248 251 194 210 262 248 262 276 243 251 256 254 254 250 230 204 204 209 203 195 187 188 191 190 192 191 192 194 191 189 188 186 186 186 186 188 190 190 189 190 190 187 186 184 184 186 187 185 184 183 182 184 187 188 190 192 194 194 194 194 195 195 197 197
249 244 248 226 226 234 251 264 253 237 244 262 291 288 275 252 217 225 212 189 227 227 239 244 201 194 253 245 223 231 219 216 232 255 260 260 249 205 194 207 205 199 189 184 186 188 191 194 196 197 193 187 184 184 183 184 186 188 189 189 188 191 190 186 185 184 184 186 187 187 185 184 182 182 184 184 185 188 189 190 191 191 193 195 197 195
266 248 244 228 216 218 251 269 270 269 255 235 268 278 301 306 216 209 209 162 210 236 238 239 202 192 235 253 224 225 229 221 218 242 260 269 263 215 197 207 203 198 192 184 183 184 186 192 197 196 192 186 181 180 182 185 187 187 188 189 188 190 189 186 184 184 184 186 187 188 187 186 185 184 185 185 186 186 187 188 189 188 190 192 193 195
261 240 247 236 212 201 226 267 275 279 258 204 232 255 260 292 246 200 216 178 209 242 241 222 186 196 232 240 237 237 237 235 227 233 253 263 263 237 207 210 209 198 192 187 183 183 184 186 190 190 189 187 182 182 185 186 187 187 188 189 189 190 189 186 185 184 186 187 188 189 188 188 188 187 189 189 189 189 189 190 189 188 189 190 190 194
288 285 278 221 232 203 200 223 241 255 227 186 198 190 193 222 193 217 234 206 218 258 256 215 180 218 257 234 232 238 237 235 233 231 239 250 258 257 224 206 214 207 194 190 185 183 186 185 185 188 189 188 186 185 186 186 187 187 189 190 190 191 189 186 185 184 186 188 189 190 190 190 189 189 191 192 192 191 192 193 192 193 194 194 195 197
252 291 249 188 220 197 196 209 210 220 231 221 199 159 170 184 165 202 212 189 212 252 263 223 179 206 232 223 219 225 232 235 236 236 240 251 257 261 243 196 204 214 201 192 189 186 187 185 184 188 190 189 187 185 185 186 188 188 190 191 191 191 189 186 185 185 186 187 189 191 191 191 191 191 192 193 194 193 194 195 195 196 198 200 203 203
220 256 242 218 230 233 250 244 208 218 240 250 205 137 165 191 168 189 207 182 175 222 256 220 199 215 219 245 238 224 233 237 235 243 250 258 259 262 262 205 193 211 208 196 192 188 186 186 185 187 189 189 187 184 184 187 188 190 191 191 192 191 188 187 185 185 186 187 188 190 190 191 191 192 192 193 194 195 196 197 198 200 200 202 206 206
208 258 269 287 282 247 238 233 209 215 221 221 162 195 220 193 156 172 264 257 114 178 262 212 230 287 280 276 267 222 228 250 247 247 249 257 264 270 275 253 196 199 211 203 193 189 187 186 188 188 188 187 184 184 186 188 190 191 191 191 192 191 188 187 186 185 186 186 187 188 189 191 192 192 193 193 194 196 198 199 200 202 202 203 206 207
202 266 270 260 276 256 211 202 243 237 204 139 176 231 246 184 116 128 203 334 61 191 274 223 185 246 248 266 299 175 205 248 255 254 262 269 279 282 275 271 233 188 197 202 195 193 190 187 187 187 188 188 186 186 188 190 191 191 190 191 191 189 188 187 186 185 185 185 185 186 188 190 192 193 194 195 195 196 197 198 199 202 204 205 206 208
171 265 278 231 243 263 224 196 269 266 220 193 207 228 147 102 290 27 115 17 167 191 282 292 204 210 212 233 298 230 216 243 256 267 285 285 288 289 275 277 267 199 185 194 195 195 192 188 187 187 189 189 188 189 190 190 190 189 191 193 192 191 188 186 184 183 184 184 184 185 187 189 192 193 194 195 195 195 196 198 199 202 206 206 206 208
145 215 288 271 232 292 2 166 223 268 237 207 218 231 145 169 214 255 159 163 164 181 255 296 296 252 232 210 208 232 244 258 272 292 295 280 277 279 273 279 274 225 193 191 190 192 190 188 189 189 188 188 187 190 190 188 187 188 190 191 191 190 187 184 183 182 182 183 183 183 185 189 191 192 194 194 194 194 196 199 200 202 205 206 207 211
150 197 255 291 323 12 317 209 188 206 205 181 191 191 179 199 221 300 230 188 152 163 190 263 306 264 250 198 171 207 251 269 270 282 282 277 281 281 276 275 265 230 201 193 187 187 188 187 190 190 190 188 187 188 186 185 187 187 188 188 188 187 184 182 183 182 182 182 182 182 184 187 190 191 192 194 194 195 196 198 199 201 204 206 210 213
186 212 233 275 314 249 241 230 174 179 193 179 194 192 182 188 181 129 282 277 179 165 174 169 268 265 263 133 125 140 321 302 274 279 287 292 297 295 289 277 256 223 201 194 187 185 186 187 189 189 188 185 184 184 183 183 185 185 185 187 187 185 183 182 182 182 182 180 180 182 183 186 188 190 192 193 193 195 196 197 197 200 204 206 210 212
148 148 247 259 263 247 251 253 228 226 252 254 239 225 175 162 158 160 222 271 294 259 258 93 264 271 277 104 98 50 330 302 287 299 311 310 308 306 301 289 260 219 199 192 187 186 187 187 188 185 181 180 180 181 181 182 184 184 185 186 186 185 183 182 182 181 180 178 178 180 182 185 187 189 191 191 192 194 195 194 196 200 203 205 208 207
129 123 231 260 273 266 262 260 250 236 227 235 240 218 179 172 180 182 195 207 283 275 286 24 259 249 269 338 359 352 329 318 321 334 336 325 319 313 306 300 270 217 199 192 188 187 188 186 183 179 176 177 179 179 179 181 183 184 185 185 186 186 184 181 180 179 177 175 175 177 181 184 186 188 190 191 192 193 193 192 195 198 201 205 206 203
183 165 195 248 284 295 292 293 288 237 185 204 222 194 191 192 185 184 200 197 247 241 200 202 245 240 303 323 327 337 332 324 321 327 338 328 320 312 309 308 275 216 199 193 190 187 184 180 175 174 175 177 177 177 178 181 182 182 183 185 186 184 182 180 179 178 176 174 173 176 180 183 185 187 189 191 192 192 192 193 194 196 201 205 202 199
191 172 174 207 231 250 251 223 237 208 178 200 195 183 195 198 184 170 169 191 225 233 205 218 256 281 315 312 313 323 324 318 313 317 328 327 314 304 309 313 276 217 198 192 187 183 180 175 173 175 177 178 177 177 178 179 180 182 183 185 185 182 181 180 179 177 175 173 172 175 179 182 184 187 188 190 191 191 191 192 193 197 202 202 198 198
170 198 206 218 230 235 226 226 229 159 142 215 202 187 192 194 186 177 169 193 209 231 239 242 261 295 301 299 308 316 312 307 306 315 325 320 306 298 307 312 279 222 198 188 181 180 178 174 176 178 177 177 177 177 178 178 179 181 182 183 183 182 181 180 178 176 174 173 174 176 179 182 185 187 188 189 190 190 190 191 193 198 200 197 196 198
158 232 222 220 236 246 240 243 253 246 184 232 204 192 195 190 186 188 201 215 203 214 259 261 264 288 290 294 307 305 304 305 305 311 313 302 293 292 305 308 278 225 196 185 181 179 177 175 178 179 176 175 176 176 177 179 181 182 182 182 182 181 181 180 177 174 173 173 175 176 179 182 185 187 188 189 189 188 189 190 193 197 196 194 196 199
162 242 227 213 237 251 245 246 255 258 254 241 208 197 199 197 195 197 211 220 206 212 250 268 282 281 284 297 302 294 295 300 299 300 296 284 285 294 307 305 273 218 193 186 183 179 176 177 178 177 175 175 174 175 176 179 182 182 181 181 181 181 181 179 176 174 173 174 176 177 179 181 183 185 186 186 184 184 186 189 192 194 193 194 196 200
186 242 218 214 246 256 246 245 250 250 250 249 233 209 196 198 202 207 222 221 214 227 245 269 285 283 285 291 288 285 287 287 283 285 282 277 284 301 309 298 258 209 192 187 184 181 179 179 178 175 173 173 173 174 176 179 181 180 180 180 180 180 180 178 176 174 173 175 176 176 178 180 181 182 184 184 182 182 185 187 189 190 192 194 196 198
229 240 185 191 252 268 249 237 235 236 237 249 260 232 193 189 198 213 230 230 228 245 257 277 289 288 284 277 274 281 288 281 277 283 286 282 284 306 312 293 239 199 194 190 184 182 181 178 176 174 173 174 175 176 177 179 180 179 181 180 180 180 179 177 176 175 175 176 175 175 176 178 180 181 181 182 183 183 184 184 186 189 191 193 194 195
206 246 201 167 197 289 266 247 232 222 212 243 269 246 198 187 193 208 216 210 218 238 258 279 283 273 270 272 277 284 281 277 284 289 289 287 286 303 314 300 239 199 194 192 187 183 180 176 174 175 177 177 177 177 178 178 177 178 180 181 181 180 178 177 176 175 175 175 174 175 176 177 179 180 180 179 181 183 183 183 185 188 190 191 192 194
194 248 276 228 277 271 247 257 249 176 144 231 252 215 192 193 200 207 209 210 214 215 226 244 245 248 264 287 301 294 288 288 290 287 280 284 290 292 302 302 266 216 199 191 190 185 179 177 178 177 179 178 178 180 180 177 177 179 181 181 180 178 176 177 177 175 175 175 174 174 176 177 179 181 180 179 180 181 181 181 184 187 190 191 192 195
212 236 264 280 305 258 216 231 238 99 134 239 242 188 184 191 195 201 211 216 213 210 221 237 247 258 270 283 279 278 287 287 283 278 267 262 274 279 281 287 281 243 213 195 190 189 183 180 180 179 179 180 181 182 181 179 180 181 180 178 177 176 175 176 176 175 174 174 174 175 176 178 179 181 181 180 180 180 180 182 185 188 190 191 192 195
227 233 240 226 259 268 276 82 88 126 224 252 304 173 190 194 196 204 216 219 214 218 230 242 257 262 258 254 256 265 278 283 283 282 270 247 244 259 265 264 261 248 228 205 193 193 190 182 178 178 178 180 180 179 179 180 180 177 175 175 174 175 175 174 173 174 174 174 174 175 176 177 179 181 180 178 178 180 182 183 185 188 190 191 193 196
242 238 220 221 247 284 1 48 147 233 267 296 4 25 85 191 188 201 228 239 229 219 225 238 252 256 250 253 264 268 281 295 299 291 274 241 220 232 240 243 239 227 222 212 198 194 192 185 179 176 175 176 176 176 177 178 177 173 173 175 174 173 173 171 171 172 173 173 173 175 176 177 178 179 177 174 175 178 181 183 185 187 190 191 193 196
234 217 235 285 298 356 333 288 246 280 336 346 360 7 5 334 242 202 222 250 246 205 210 242 252 252 247 256 271 290 319 320 309 296 288 266 184 211 227 231 230 222 214 211 204 198 194 188 180 175 173 172 174 176 176 175 173 171 171 172 172 171 171 170 170 172 173 172 173 176 178 178 178 178 176 174 174 176 180 183 186 188 190 191 192 194
160 171 250 304 330 33 322 307 336 18 6 297 289 305 320 282 260 230 198 253 272 18 27 307 270 263 268 282 298 335 352 326 306 293 296 313 41 172 219 235 226 214 199 201 204 197 190 183 176 173 174 173 173 175 173 171 169 167 167 169 171 170 170 171 173 173 173 174 176 177 178 178 178 178 177 175 174 175 180 183 186 188 191 192 191 192
41 59 56 39 338 349 37 353 329 14 220 257 285 310 320 279 250 215 137 277 286 353 9 338 304 296 297 298 308 353 17 317 293 280 290 307 315 164 184 300 242 144 137 186 201 185 173 173 172 170 172 172 172 172 170 168 166 165 166 170 171 171 173 176 176 175 174 175 177 178 178 179 181 180 178 175 174 176 181 184 185 189 191 192 193 193
24 12 30 38 345 330 38 328 254 236 247 277 307 322 317 297 266 94 76 267 283 333 344 332 310 302 299 300 308 332 189 256 268 272 292 313 313 166 129 40 322 109 138 182 187 173 166 167 164 163 168 173 173 171 168 166 165 165 168 170 171 174 177 180 179 176 175 175 175 177 179 181 182 180 176 172 172 177 183 183 184 188 190 192 193 193
1 344 9 52 351 333 15 298 273 277 256 279 323 325 313 321 50 101 211 250 303 324 325 319 303 298 304 311 307 285 243 250 266 279 291 303 303 272 115 91 350 314 239 198 171 159 162 167 169 172 175 175 172 169 167 166 166 167 168 170 173 178 180 179 177 174 173 174 175 177 179 181 180 177 174 174 175 179 182 183 185 187 188 190 192 193
350 333 329 45 358 350 38 268 303 290 239 310 341 330 318 5 59 234 254 306 319 313 312 311 305 302 306 301 287 273 266 265 270 276 272 259 247 206 116 106 149 255 260 232 180 167 168 172 175 176 176 173 170 168 168 167 166 167 168 171 176 178 176 174 172 172 172 174 175 174 174 176 178 179 178 179 179 177 178 181 186 188 188 189 191 192
328 323 336 356 336 340 14 359 338 288 257 0 355 338 341 47 298 292 319 323 306 297 299 303 302 297 293 287 277 270 267 267 278 295 282 240 190 169 153 149 166 186 197 197 183 174 173 177 178 176 175 174 172 170 168 166 165 166 168 171 173 171 169 169 170 171 172 172 171 169 171 175 178 179 179 180 179 176 175 178 184 186 186 188 189 188
268 293 340 351 336 354 5 343 285 257 279 330 345 306 297 314 296 295 310 304 290 273 260 274 285 279 268 258 254 255 257 268 318 335 314 311 345 120 150 150 163 169 161 151 143 131 120 168 184 176 173 171 170 169 168 165 162 162 164 166 166 166 166 168 169 170 170 169 167 167 170 174 177 178 180 181 179 176 174 177 181 183 185 187 187 186
243 225 233 244 253 228 230 246 251 263 281 295 286 262 283 305 303 295 291 289 291 281 256 267 280 275 262 249 250 257 263 295 346 333 306 325 14 22 18 64 136 136 132 136 139 137 129 114 114 138 156 166 169 168 167 165 161 158 158 161 165 167 167 168 170 170 170 169 167 165 169 173 176 179 180 180 178 176 176 177 177 178 182 184 185 186
247 218 181 212 264 257 243 248 255 274 287 290 280 264 280 299 304 305 305 299 294 292 287 280 277 276 273 269 276 282 277 317 0 325 309 350 33 56 86 84 89 100 111 124 131 134 130 124 124 129 126 127 139 142 145 154 157 156 159 164 168 171 171 171 171 171 171 171 170 169 171 173 175 178 178 178 179 180 180 179 178 178 179 183 186 190
279 219 181 232 291 318 300 270 242 258 283 292 300 301 304 311 314 316 313 300 292 292 295 297 296 291 287 290 297 285 284 351 19 316 310 5 19 355 117 129 123 120 135 147 145 141 137 135 139 142 137 138 149 155 158 162 164 165 168 169 170 172 172 172 172 171 170 170 170 170 171 171 172 173 174 173 176 179 181 182 182 181 182 185 188 189
313 332 284 269 261 265 278 283 287 269 265 274 297 318 310 313 320 323 315 308 317 328 324 320 321 314 310 321 319 298 305 347 5 312 313 352 349 321 344 56 95 105 120 141 148 149 149 148 151 154 155 160 168 171 171 173 175 174 172 170 171 171 171 172 172 170 168 167 167 168 170 171 171 171 171 173 177 180 182 184 185 187 189 191 191 190
299 303 280 290 304 286 281 302 329 323 276 281 308 307 290 303 320 325 326 331 342 341 331 328 329 327 324 322 314 306 315 332 332 321 331 341 343 354 27 58 72 85 99 119 138 150 153 152 152 153 154 159 168 172 170 170 173 173 169 169 172 172 171 172 171 169 167 166 165 166 168 171 172 172 173 176 179 184 187 190 192 194 195 196 198 199
322 301 302 350 337 308 304 329 349 340 295 288 295 299 302 315 330 331 331 337 341 335 335 342 339 329 316 300 290 296 322 329 336 352 1 359 357 4 46 88 81 78 91 103 116 130 136 137 138 138 141 147 157 166 166 164 168 172 171 172 174 173 171 169 166 163 163 163 163 166 168 170 173 175 176 177 179 182 187 192 196 199 200 201 203 207
299 281 302 325 309 285 288 317 346 316 276 272 276 299 307 326 344 335 327 333 338 334 338 347 337 318 304 304 332 14 22 8 9 18 19 9 3 17 65 82 81 91 103 106 112 119 127 134 138 140 144 148 150 152 155 158 166 173 175 175 175 175 172 167 162 160 162 165 167 170 172 172 173 175 177 178 180 181 182 185 192 200 205 207 208 210